カタログに戻る

COSMOS 911

運用中軍事PO
NORAD 10019·PAYLOAD·🇷🇺 Russia

打ち上げ May 25, 1977 から Plesetsk Cosmodrome

Loading…

次のパス (今後24時間)

TLE

最新Source: Space-Track

元期: Sep 14, 2026, 11:23 UTC

1 10019U 77039A   26257.47448383  .00000030  00000-0  14972-4 0  9990
2 10019  82.9439  70.6920 0025950  94.0908 295.2417 13.75431332474134

AllMySatでCOSMOS 911をリアルタイム追跡

Download on the App Store